{"data":{"norad_id":56140,"intl_designator":"2023-046BA","name":"STARLINK-5375","alt_names":[],"object_type":"PAYLOAD","status":"ACTIVE","operator":null,"country":"US","launch_date":"2023-03-29","launch_site_code":"AFETR","launch_vehicle":null,"mission":null,"orbit_class":"UNKNOWN","rcs_meters":null,"size_class":null,"mass_kg":null,"dimensions":null,"purposes":["comms"],"wikipedia_slug":null,"has_3d_model":false,"image_url":null,"decayed_at":null,"tle_current":{"epoch":"2026-09-20T07:57:09.518688Z","epoch_age_seconds":123380,"freshness":"FRESH","line1":"1 56140U 23046BA  26263.33136017 -.00000196  00000+0  23938-5 0  9990","line2":"2 56140  43.0024 128.1245 0001006 256.9866 103.0874 15.27576018191964","mean_motion":15.27576018,"eccentricity":0.0001006,"inclination_deg":43.0024,"raan_deg":128.1245,"arg_perigee_deg":256.9866,"mean_anomaly_deg":103.0874,"bstar":2.3938e-6,"rev_number":19196,"period_min":94.266994442957,"perigee_km":482.3707830853,"apogee_km":483.75125612684,"semimajor_km":6861.1980196061,"source":"CELESTRAK","updated_at":"2026-09-21T09:00:33.389611Z"}}}